Location: Columbia
(38.9520°N, 92.3340°W)
Time: 01:13:24
(UTC-05:00)

SJ-11-01 - Visible Passes

Search period start: 22 September 2014 00:00
Search period end: 02 October 2014 00:00
Orbit: 684 x 701 km, 98.0° (Epoch: 21 September)

Date Brightness Start Highest point End Pass type
(mag) Time Alt. Az. Time Alt. Az. Time Alt. Az.
22 Sep 5.8 20:08:23 16° ENE 20:09:11 17° ENE 20:12:09 10° NNE visible
22 Sep 5.3 21:47:04 44° WNW 21:47:04 44° WNW 21:50:53 10° NNW visible
23 Sep 4.7 20:48:45 40° ENE 20:48:45 40° ENE 20:52:59 10° N visible
23 Sep 6.8 22:27:26 17° WNW 22:27:26 17° WNW 22:29:36 10° NW visible
24 Sep 6.2 19:50:25 11° ENE 19:51:20 11° ENE 19:52:40 10° NE visible
24 Sep 4.7 21:29:07 58° NW 21:29:07 58° NW 21:32:56 10° NNW visible
25 Sep 5.3 20:30:47 27° ENE 20:30:47 27° ENE 20:34:33 10° NNE visible
25 Sep 6.4 22:09:28 24° WNW 22:09:28 24° WNW 22:12:09 10° NW visible
26 Sep 4.7 21:11:09 53° NNE 21:11:09 53° NNE 21:14:50 10° N visible
27 Sep 5.8 20:12:49 18° ENE 20:12:49 18° ENE 20:15:52 10° NNE visible
27 Sep 5.9 21:51:30 32° NW 21:51:30 32° NW 21:54:24 10° NNW visible
28 Sep 5.0 20:53:11 38° NE 20:53:11 38° NE 20:56:35 10° N visible
28 Sep 7.1 22:31:52 14° WNW 22:31:52 14° WNW 22:32:57 10° NW visible
29 Sep 6.2 19:54:51 12° ENE 19:54:51 12° ENE 19:56:39 10° NE visible
29 Sep 5.5 21:33:32 38° NNW 21:33:32 38° NNW 21:36:27 10° NNW visible
30 Sep 5.4 20:35:12 27° NE 20:35:12 27° NE 20:38:10 10° N visible
30 Sep 6.8 22:13:54 18° NW 22:13:54 18° NW 22:15:34 10° NW visible
01 Oct 5.4 21:15:34 36° N 21:15:34 36° N 21:18:22 10° N visible
